Quick links : Home Page : Contact Us : Index : Site Map : Search Site : Ephemerides


(162269) 1999 VO6

Orbital Elements

The following orbital elements are taken from MPO123013
(162269) 1999 VO6
Epoch 2007 Oct. 27.0 TT = JDT 2454400.5                 MPC
M 161.95917              (2000.0)            P               Q
n   0.81479305     Peri.  302.43493     -0.77088539     -0.56609820
a   1.1352840      Node   206.96985     +0.52104386     -0.82411665
e   0.7381869      Incl.   40.08082     -0.36640007     +0.01909363
P   1.21           H   17.0           G   0.15           U   3
From 156 observations at 8 oppositions, 1993-2007, mean residual 0".51.
An explanation of the orbital elements is available.

These orbital elements are also available in forms suitable for loading into a number of popular planetarium-type software programs.


Ephemeris

The following ephemeris is at intervals of five days. A daily ephemeris covering the same time interval is also available.

Personalized ephemerides for this (and other) objects may be generated using the Minor Planet & Comet Ephemeris Service.

Date    TT    R. A. (2000) Decl.     Delta      r     Elong.  Phase     V
2008 04 14    00 47.04   +13 42.7    2.264    1.296    11.4     8.8    19.9
 
2008 07 13    09 42.46   +25 57.9    0.883    0.515    30.4    89.2    18.4
2008 07 18    10 27.39   +29 20.0    0.854    0.603    36.3    86.7    18.6
2008 07 23    11 11.86   +31 50.1    0.845    0.688    42.1    82.3    18.7
2008 07 28    11 54.86   +33 20.7    0.852    0.769    47.6    77.4    18.8
2008 08 02    12 35.30   +33 55.1    0.872    0.846    52.6    72.4    18.9
2008 08 07    13 12.38   +33 42.5    0.901    0.919    57.0    67.7    19.0
2008 08 12    13 45.79   +32 54.5    0.939    0.988    60.7    63.4    19.1
2008 08 17    14 15.61   +31 42.0    0.982    1.054    63.8    59.5    19.2
2008 08 22    14 42.19   +30 13.7    1.030    1.116    66.3    56.1    19.3
2008 08 27    15 05.98   +28 36.4    1.081    1.175    68.3    53.0    19.5
2008 09 01    15 27.42   +26 54.7    1.136    1.231    69.8    50.3    19.6
2008 09 06    15 46.92   +25 12.3    1.193    1.284    70.8    47.8    19.7
2008 09 11    16 04.82   +23 31.4    1.253    1.335    71.5    45.7    19.9
2008 09 16    16 21.41   +21 53.6    1.314    1.383    71.8    43.7    20.0
2008 09 21    16 36.92   +20 20.0    1.377    1.428    71.8    41.9    20.1
2008 09 26    16 51.55   +18 51.0    1.440    1.472    71.5    40.3    20.2
2008 10 01    17 05.47   +17 27.2    1.505    1.513    71.0    38.7    20.3
2008 10 06    17 18.78   +16 08.9    1.571    1.551    70.3    37.3    20.4
2008 10 11    17 31.59   +14 56.3    1.637    1.588    69.3    36.0    20.5
2008 10 16    17 43.98   +13 49.4    1.703    1.623    68.2    34.8    20.6
2008 10 21    17 56.00   +12 48.0    1.770    1.656    66.9    33.6    20.7
2008 10 26    18 07.73   +11 52.2    1.836    1.687    65.5    32.4    20.8
2008 10 31    18 19.20   +11 01.9    1.902    1.716    64.0    31.3    20.9
 
2009 05 19    00 54.05   +22 47.1    2.295    1.643    39.4    23.0    21.0

Back to Observable Critical-List Minor Planets

MPC

Valid HTML 4.01!